Location: ????????
(55.3155°N, 39.2900°E)
Time: 17:48:48
(UTC+00:00)

ACS3 Solar Sail - Pass Details

Date: 23 November 2025
Orbit: 889 x 1003 km, 97.3° (Epoch: 06 December)

Event Time Altitude Azimuth Distance (km) Brightness Sun altitude
Rises 23:39:46 0° 17° (NNE) 3,598 5.3 -45.3°
Reaches altitude 10° 23:42:29 10° 28° (NNE) 2,668 4.6 -45.0°
Enters shadow 23:44:20 19° 41° (NE) 2,122 4.0 -44.8°
